Showing default

AO-91, 43017

Orbit data source: Space-Track

AO-91, 43017 is an American payload satellite in SSO that was launched on Sat, 18 Nov 2017 UTC via a DELTA 7920-10C launch vehicle from the Air Force Western Test Range (AFWTR). Payload-class satellites include a variety of spacecraft equipped with specific instruments for various scientific and technological missions. These include communications satellites like Starlink; space stations such as the ISS; scientific satellites like the Hubble; Earth observation satellites from companies like Planet Labs, Umbra, and HawkEye 360; GPS; miniature CubeSats for education and research; and military/defense satellites.

Loading next visibility...
Identifier
43017, 2017-073E
Orbit
SSO
Country
Flag of USUS
Related business
Manufacturer
Vanderbilt U
Mission
Operational Amateur Tech/Com
Bus & Motor
CUBESAT 1U, Unknown motor
Mass
1 kg wet, 1 kg dry
Launch date (UTC)
2017-11-18 (9 years ago)
Launch vehicle
DELTA 7920-10C
Launch site
Air Force Western Test Range (AFWTR)
Object type
Payload
Rocket body
Debris
Shape & HBR
Box, 0.087 m
Radar Cross Section
0.015 m², Medium (>0.1 m² and < 1m²)

Expand to show TLE details & history
Last TLE update: 20 hours ago

TLE from 20 hours ago
0 AO-91
1 43017U 17073E   26266.85963235  .00006853  00000-0  29154-3 0  9992
2 43017  97.4540 132.0587 0146647 348.1922  11.5883 15.14023301480311
Epoch: 2026-09-23T20:37Z
TLE epoch observation values (Epoch: 2026-09-23T20:37:52.235Z)
Latitude
0.00001°
Longitude
179.88635°
Altitude
427.913 km
Speed
7.709 km/s
True Right ascension
08h 48m 14s
True Declination
0° 00' 00"
Sunlit
Object was in daylight at epoch
Visualization orbit readout
Latitude
Unknown
Longitude
Unknown
Altitude
Unknown
Speed
Unknown
Apparent Right ascension
Unknown
Apparent Declination
Unknown
Sunlit
N/A
Visualization observer readout
Local Sidereal Time
10:05:53
Azimuth
Unknown
Elevation
Unknown
Doppler factor
Unknown
Orbital elements
Apogee altitude
622.093 km
Perigee altitude
419.748 km
Semi-major axis
6,899.057 km
Eccentricity
0.01466
Inclination
97.454°
RAAN
132.0587°
Arg. of periapsis
348.1922°
True anomaly
11.93203°
Mean anomaly
11.5883°
Eccentric anomaly
11.75954°
Mean motion
3.78755 °/min
Orbital period
95.05 mins
BSTAR
0.00029154
Loading maneuver chart data...
Computing Atmospheric mass density...
Loading historical data...
Loading historical data...
Loading historical data...
Loading historical data...
Loading historical data...
Loading historical data...
Loading historical data...

Documentation

Showing up to 5 results
|